Showing default

KUIPER-00104, 65142

Orbit data source: Space-Track

KUIPER-00104, 65142 is a payload satellite owned by Kuiper Systems (US) in LEO that was launched on Mon, 11 Aug 2025 UTC via an FALCON 9 launch vehicle from the Air Force Eastern Test Range (AFETR). Payload-class satellites include a variety of spacecraft equipped with specific instruments for various scientific and technological missions. These include communications satellites like Starlink; space stations such as the ISS; scientific satellites like the Hubble; Earth observation satellites from companies like Planet Labs, Umbra, and HawkEye 360; GPS; miniature CubeSats for education and research; and military/defense satellites.

Loading next visibility...
Identifier
65142, 2025-171L
Orbit
LEO
Country
Flag of USUS
Related business
Manufacturer
Kuiper Systems
Mission
Operational Commercial Communications
Bus & Motor
KUIPER, Unknown motor
Mass
~490 kg wet, ~490 kg dry
Launch date (UTC)
2025-08-11 (10 months ago)
Launch vehicle
FALCON 9
Launch site
Air Force Eastern Test Range (AFETR)
Object type
Payload
Rocket body
Debris
Shape & HBR
Box + 2 Pan, 3.4 m
Radar Cross Section
2.326 m², Large (>1 m²)

Expand to show TLE details & history
Last TLE update: 18 hours ago

TLE from 18 hours ago
0 KUIPER-00104
1 65142U 25171L   26171.08639782  .00003096  00000-0  43492-3 0  9997
2 65142  51.9025  65.2513 0000742 104.1809 255.9236 14.79936808 48054
Epoch: 2026-06-20T02:04Z
TLE epoch observation values (Epoch: 2026-06-20T02:04:24.771Z)
Latitude
-0.00002°
Longitude
125.84201°
Altitude
630.397 km
Speed
7.544 km/s
True Right ascension
04h 21m 00s
True Declination
0° 00' 00"
Sunlit
Object was in daylight at epoch
Visualization orbit readout
Latitude
Unknown
Longitude
Unknown
Altitude
Unknown
Speed
Unknown
Apparent Right ascension
Unknown
Apparent Declination
Unknown
Sunlit
N/A
Visualization observer readout
Local Sidereal Time
07:12:27
Azimuth
Unknown
Elevation
Unknown
Doppler factor
Unknown
Orbital elements
Apogee altitude
630.494 km
Perigee altitude
629.454 km
Semi-major axis
7,008.111 km
Eccentricity
0.00007
Inclination
51.9025°
RAAN
65.2513°
Arg. of periapsis
104.1809°
True anomaly
255.91535°
Mean anomaly
255.9236°
Eccentric anomaly
255.91948°
Mean motion
3.69949 °/min
Orbital period
97.31 mins
BSTAR
0.00043492
Loading maneuver chart data...
Computing Atmospheric mass density...
Loading historical data...
Loading historical data...
Loading historical data...
Loading historical data...
Loading historical data...
Loading historical data...
Loading historical data...

Documentation

Showing up to 5 results
|